| time (UTC) | temp F | wind direction | speed MPH | gust MPH | rain 1hr in | rain 24hr in | rain mn in | humidity % | barometer mb |
| 20260507025402 | 63 | 236 | 9.0 | 13.0 | 0.00 | 0.00 | 0.00 | 28 | 1017.1 |
| 20260507024903 | 63 | 229 | 13.0 | 16.0 | 0.00 | 0.00 | 0.00 | 28 | 1017.0 |
| 20260507024403 | 63 | 228 | 10.0 | 15.0 | 0.00 | 0.00 | 0.00 | 28 | 1017.0 |
| 20260507023903 | 64 | 239 | 19.0 | 23.0 | 0.00 | 0.00 | 0.00 | 27 | 1017.0 |
| 20260507022903 | 64 | 253 | 8.0 | 12.0 | 0.00 | 0.00 | 0.00 | 27 | 1016.9 |
| 20260507022402 | 64 | 227 | 9.0 | 12.0 | 0.00 | 0.00 | 0.00 | 27 | 1016.8 |
| 20260507021902 | 64 | 241 | 6.0 | 14.0 | 0.00 | 0.00 | 0.00 | 27 | 1016.9 |
| 20260507021402 | 64 | 233 | 8.0 | 14.0 | 0.00 | 0.00 | 0.00 | 27 | 1016.8 |
| 20260507020903 | 65 | 238 | 9.0 | 13.0 | 0.00 | 0.00 | 0.00 | 26 | 1016.7 |
| 20260507020404 | 65 | 265 | 6.0 | 12.0 | 0.00 | 0.00 | 0.00 | 26 | 1016.7 |
| 20260507015902 | 65 | 257 | 7.0 | 12.0 | 0.00 | 0.00 | 0.00 | 26 | 1016.7 |
| 20260507015403 | 66 | 234 | 10.0 | 10.0 | 0.00 | 0.00 | 0.00 | 25 | 1016.7 |
| 20260507014903 | 66 | 246 | 10.0 | 17.0 | 0.00 | 0.00 | 0.00 | 25 | 1016.7 |
| 20260507013903 | 67 | 231 | 8.0 | 9.0 | 0.00 | 0.00 | 0.00 | 25 | 1016.5 |
| 20260507013403 | 67 | 232 | 10.0 | 13.0 | 0.00 | 0.00 | 0.00 | 24 | 1016.5 |
| 20260507012904 | 67 | 232 | 6.0 | 8.0 | 0.00 | 0.00 | 0.00 | 24 | 1016.6 |
| 20260507012402 | 68 | 229 | 7.0 | 10.0 | 0.00 | 0.00 | 0.00 | 24 | 1016.6 |
| 20260507011902 | 69 | 242 | 8.0 | 13.0 | 0.00 | 0.00 | 0.00 | 23 | 1016.6 |
| 20260507011403 | 69 | 243 | 6.0 | 10.0 | 0.00 | 0.00 | 0.00 | 22 | 1016.6 |
| 20260507010902 | 69 | 247 | 7.0 | 8.0 | 0.00 | 0.00 | 0.00 | 22 | 1016.6 |
| 20260507010403 | 69 | 252 | 10.0 | 12.0 | 0.00 | 0.00 | 0.00 | 22 | 1016.6 |
| 20260507005903 | 69 | 229 | 5.0 | 10.0 | 0.00 | 0.00 | 0.00 | 22 | 1016.5 |
| 20260507004903 | 71 | 249 | 6.0 | 7.0 | 0.00 | 0.00 | 0.00 | 20 | 1016.5 |
| 20260507004403 | 70 | 266 | 7.0 | 10.0 | 0.00 | 0.00 | 0.00 | 21 | 1016.5 |
| 20260507003903 | 71 | 232 | 6.0 | 12.0 | 0.00 | 0.00 | 0.00 | 20 | 1016.5 |
| 20260507003403 | 71 | 268 | 9.0 | 13.0 | 0.00 | 0.00 | 0.00 | 20 | 1016.5 |
| 20260507002903 | 71 | 277 | 7.0 | 13.0 | 0.00 | 0.00 | 0.00 | 21 | 1016.3 |
| 20260507001903 | 71 | 268 | 7.0 | 10.0 | 0.00 | 0.00 | 0.00 | 21 | 1016.4 |
| 20260507001403 | 72 | 277 | 6.0 | 10.0 | 0.00 | 0.00 | 0.00 | 20 | 1016.4 |
| 20260507000903 | 72 | 253 | 6.0 | 10.0 | 0.00 | 0.00 | 0.00 | 20 | 1016.4 |
| 20260507000405 | 71 | 267 | 12.0 | 13.0 | 0.00 | 0.00 | 0.00 | 21 | 1016.3 |
| 20260506235903 | 72 | 285 | 9.0 | 12.0 | 0.00 | 0.00 | 0.00 | 20 | 1016.1 |
| 20260506235403 | 72 | 218 | 8.0 | 9.0 | 0.00 | 0.00 | 0.00 | 19 | 1016.1 |
| 20260506234903 | 72 | 219 | 4.0 | 9.0 | 0.00 | 0.00 | 0.00 | 19 | 1016.2 |
| 20260506234403 | 73 | 249 | 7.0 | 10.0 | 0.00 | 0.00 | 0.00 | 19 | 1016.2 |
| 20260506233402 | 72 | 258 | 6.0 | 7.0 | 0.00 | 0.00 | 0.00 | 20 | 1016.3 |
| 20260506232903 | 72 | 287 | 6.0 | 13.0 | 0.00 | 0.00 | 0.00 | 20 | 1016.3 |
| 20260506231903 | 72 | 263 | 5.0 | 10.0 | 0.00 | 0.00 | 0.00 | 20 | 1016.3 |
| 20260506230903 | 72 | 252 | 8.0 | 12.0 | 0.00 | 0.00 | 0.00 | 19 | 1016.3 |
| 20260506230403 | 72 | 258 | 7.0 | 15.0 | 0.00 | 0.00 | 0.00 | 20 | 1016.3 |
| 20260506225903 | 73 | 263 | 7.0 | 15.0 | 0.00 | 0.00 | 0.00 | 19 | 1016.4 |
| 20260506225404 | 72 | 253 | 9.0 | 12.0 | 0.00 | 0.00 | 0.00 | 19 | 1016.3 |
| 20260506224903 | 73 | 234 | 7.0 | 8.0 | 0.00 | 0.00 | 0.00 | 19 | 1016.3 |
| 20260506224402 | 72 | 231 | 6.0 | 7.0 | 0.00 | 0.00 | 0.00 | 20 | 1016.4 |
| 20260506223903 | 71 | 45 | 6.0 | 14.0 | 0.00 | 0.00 | 0.00 | 19 | 1016.4 |
| 20260506223403 | 72 | 316 | 10.0 | 14.0 | 0.00 | 0.00 | 0.00 | 20 | 1016.4 |
| 20260506222903 | 70 | 253 | 4.0 | 8.0 | 0.00 | 0.00 | 0.00 | 20 | 1016.5 |
| 20260506222403 | 71 | 261 | 10.0 | 12.0 | 0.00 | 0.00 | 0.00 | 20 | 1016.5 |
| 20260506221903 | 71 | 160 | 5.0 | 13.0 | 0.00 | 0.00 | 0.00 | 19 | 1016.5 |
| 20260506221403 | 72 | 3 | 9.0 | 10.0 | 0.00 | 0.00 | 0.00 | 18 | 1016.7 |
| 20260506220903 | 73 | 291 | 10.0 | 13.0 | 0.00 | 0.00 | 0.00 | 19 | 1016.7 |
| 20260506220403 | 72 | 280 | 6.0 | 7.0 | 0.00 | 0.00 | 0.00 | 20 | 1016.7 |
| 20260506215903 | 72 | 235 | 5.0 | 8.0 | 0.00 | 0.00 | 0.00 | 19 | 1016.8 |
| 20260506215404 | 73 | 283 | 9.0 | 10.0 | 0.00 | 0.00 | 0.00 | 19 | 1017.0 |
| 20260506214902 | 72 | 300 | 5.0 | 13.0 | 0.00 | 0.00 | 0.00 | 18 | 1016.9 |
| 20260506213902 | 70 | 151 | 5.0 | 9.0 | 0.00 | 0.00 | 0.00 | 20 | 1017.1 |
| 20260506213403 | 70 | 43 | 6.0 | 10.0 | 0.00 | 0.00 | 0.00 | 19 | 1017.1 |
| 20260506212904 | 71 | 39 | 7.0 | 15.0 | 0.00 | 0.00 | 0.00 | 19 | 1017.3 |
| 20260506212403 | 72 | 301 | 8.0 | 12.0 | 0.00 | 0.00 | 0.00 | 19 | 1017.4 |
| 20260506211403 | 70 | 286 | 7.0 | 10.0 | 0.00 | 0.00 | 0.00 | 20 | 1017.4 |
| 20260506210903 | 70 | 256 | 7.0 | 9.0 | 0.00 | 0.00 | 0.00 | 20 | 1017.4 |
| 20260506210404 | 70 | 327 | 9.0 | 12.0 | 0.00 | 0.00 | 0.00 | 19 | 1017.5 |
| 20260506205903 | 70 | 7 | 7.0 | 13.0 | 0.00 | 0.00 | 0.00 | 20 | 1017.6 |
| 20260506205404 | 70 | 77 | 10.0 | 12.0 | 0.00 | 0.00 | 0.00 | 19 | 1017.5 |
| 20260506204403 | 70 | 58 | 9.0 | 10.0 | 0.00 | 0.00 | 0.00 | 19 | 1017.7 |
| 20260506203903 | 70 | 299 | 10.0 | 17.0 | 0.00 | 0.00 | 0.00 | 20 | 1017.8 |
| 20260506203403 | 68 | 351 | 8.0 | 12.0 | 0.00 | 0.00 | 0.00 | 21 | 1017.7 |
| 20260506202903 | 68 | 19 | 8.0 | 9.0 | 0.00 | 0.00 | 0.00 | 21 | 1017.8 |
| 20260506202404 | 68 | 14 | 7.0 | 12.0 | 0.00 | 0.00 | 0.00 | 21 | 1017.9 |
| 20260506201902 | 67 | 172 | 7.0 | 9.0 | 0.00 | 0.00 | 0.00 | 21 | 1017.9 |
| 20260506200903 | 68 | 333 | 10.0 | 14.0 | 0.00 | 0.00 | 0.00 | 21 | 1018.0 |
| 20260506200403 | 68 | 334 | 6.0 | 8.0 | 0.00 | 0.00 | 0.00 | 21 | 1018.0 |
| 20260506195903 | 69 | 280 | 7.0 | 10.0 | 0.00 | 0.00 | 0.00 | 21 | 1018.1 |
| 20260506195404 | 68 | 287 | 8.0 | 9.0 | 0.00 | 0.00 | 0.00 | 22 | 1018.1 |
| 20260506194903 | 67 | 338 | 8.0 | 9.0 | 0.00 | 0.00 | 0.00 | 22 | 1018.2 |
| 20260506194403 | 68 | 319 | 5.0 | 10.0 | 0.00 | 0.00 | 0.00 | 21 | 1018.2 |
| 20260506193903 | 68 | 309 | 9.0 | 13.0 | 0.00 | 0.00 | 0.00 | 21 | 1018.3 |
| 20260506193403 | 68 | 321 | 6.0 | 9.0 | 0.00 | 0.00 | 0.00 | 22 | 1018.4 |
| 20260506192403 | 67 | 344 | 9.0 | 10.0 | 0.00 | 0.00 | 0.00 | 22 | 1018.3 |
| 20260506191903 | 67 | 342 | 12.0 | 15.0 | 0.00 | 0.00 | 0.00 | 22 | 1018.5 |
| 20260506191403 | 66 | 293 | 9.0 | 9.0 | 0.00 | 0.00 | 0.00 | 23 | 1018.4 |
| 20260506190904 | 66 | 327 | 10.0 | 10.0 | 0.00 | 0.00 | 0.00 | 23 | 1018.6 |
| 20260506190403 | 66 | 302 | 12.0 | 13.0 | 0.00 | 0.00 | 0.00 | 23 | 1018.5 |
| 20260506185903 | 66 | 309 | 10.0 | 15.0 | 0.00 | 0.00 | 0.00 | 23 | 1018.6 |
| 20260506185403 | 66 | 316 | 9.0 | 12.0 | 0.00 | 0.00 | 0.00 | 23 | 1018.6 |
| 20260506184904 | 65 | 318 | 5.0 | 7.0 | 0.00 | 0.00 | 0.00 | 22 | 1018.5 |
| 20260506184403 | 66 | 20 | 9.0 | 10.0 | 0.00 | 0.00 | 0.00 | 22 | 1018.6 |
| 20260506183903 | 66 | 325 | 7.0 | 9.0 | 0.00 | 0.00 | 0.00 | 22 | 1018.7 |
| 20260506183403 | 65 | 310 | 7.0 | 8.0 | 0.00 | 0.00 | 0.00 | 23 | 1018.7 |
| 20260506182903 | 64 | 14 | 10.0 | 10.0 | 0.00 | 0.00 | 0.00 | 22 | 1018.8 |
| 20260506182403 | 64 | 9 | 7.0 | 10.0 | 0.00 | 0.00 | 0.00 | 22 | 1018.8 |
| 20260506181903 | 65 | 332 | 6.0 | 6.0 | 0.00 | 0.00 | 0.00 | 22 | 1018.9 |
| 20260506181402 | 64 | 334 | 10.0 | 12.0 | 0.00 | 0.00 | 0.00 | 23 | 1018.8 |
| 20260506180903 | 64 | 295 | 7.0 | 10.0 | 0.00 | 0.00 | 0.00 | 23 | 1018.8 |
| 20260506180403 | 63 | 293 | 9.0 | 12.0 | 0.00 | 0.00 | 0.00 | 23 | 1018.7 |
| 20260506175903 | 62 | 26 | 7.0 | 9.0 | 0.00 | 0.00 | 0.00 | 23 | 1018.7 |
| 20260506173403 | 63 | 312 | 10.0 | 15.0 | 0.00 | 0.00 | 0.00 | 24 | 1018.8 |
| 20260506172903 | 62 | 355 | 7.0 | 15.0 | 0.00 | 0.00 | 0.00 | 24 | 1018.7 |
| 20260506172403 | 62 | 323 | 9.0 | 10.0 | 0.00 | 0.00 | 0.00 | 25 | 1018.7 |
| 20260506171403 | 61 | 347 | 7.0 | 8.0 | 0.00 | 0.00 | 0.00 | 26 | 1018.6 |
| 20260506170403 | 61 | 25 | 6.0 | 10.0 | 0.00 | 0.00 | 0.00 | 27 | 1018.6 |
| 20260506165903 | 61 | 1 | 9.0 | 10.0 | 0.00 | 0.00 | 0.00 | 27 | 1018.6 |
| 20260506165403 | 61 | 275 | 6.0 | 8.0 | 0.00 | 0.00 | 0.00 | 27 | 1018.5 |
| 20260506164902 | 60 | 27 | 6.0 | 8.0 | 0.00 | 0.00 | 0.00 | 28 | 1018.5 |
| 20260506164403 | 60 | 343 | 6.0 | 8.0 | 0.00 | 0.00 | 0.00 | 28 | 1018.5 |
| 20260506163903 | 60 | 278 | 4.0 | 8.0 | 0.00 | 0.00 | 0.00 | 29 | 1018.5 |
| 20260506163403 | 60 | 74 | 5.0 | 8.0 | 0.00 | 0.00 | 0.00 | 30 | 1018.5 |
| 20260506162904 | 59 | 20 | 2.0 | 8.0 | 0.00 | 0.00 | 0.00 | 30 | 1018.6 |
| 20260506161403 | 58 | 262 | 8.0 | 10.0 | 0.00 | 0.00 | 0.00 | 31 | 1018.4 |
| 20260506160903 | 58 | 291 | 7.0 | 7.0 | 0.00 | 0.00 | 0.00 | 31 | 1018.4 |
| 20260506160403 | 58 | 5 | 3.0 | 6.0 | 0.00 | 0.00 | 0.00 | 31 | 1018.4 |
| 20260506155903 | 58 | 315 | 6.0 | 9.0 | 0.00 | 0.00 | 0.00 | 30 | 1018.5 |
| 20260506155403 | 58 | 299 | 6.0 | 10.0 | 0.00 | 0.00 | 0.00 | 31 | 1018.5 |
| 20260506154903 | 58 | 292 | 5.0 | 7.0 | 0.00 | 0.00 | 0.00 | 32 | 1018.4 |
| 20260506154403 | 57 | 352 | 5.0 | 6.0 | 0.00 | 0.00 | 0.00 | 33 | 1018.3 |
| 20260506153404 | 56 | 324 | 7.0 | 8.0 | 0.00 | 0.00 | 0.00 | 36 | 1018.4 |
| 20260506152403 | 56 | 47 | 6.0 | 7.0 | 0.00 | 0.00 | 0.00 | 36 | 1018.2 |
| 20260506151903 | 55 | 9 | 5.0 | 7.0 | 0.00 | 0.00 | 0.00 | 36 | 1018.2 |
| 20260506151404 | 55 | 17 | 3.0 | 5.0 | 0.00 | 0.00 | 0.00 | 39 | 1018.3 |
| 20260506150403 | 55 | 88 | 3.0 | 3.0 | 0.00 | 0.00 | 0.00 | 39 | 1018.3 |
| 20260506145904 | 54 | 96 | 5.0 | 6.0 | 0.00 | 0.00 | 0.00 | 40 | 1018.2 |
| 20260506145402 | 53 | 46 | 3.0 | 5.0 | 0.00 | 0.00 | 0.00 | 41 | 1018.2 |
| 20260506144903 | 53 | 64 | 3.0 | 3.0 | 0.00 | 0.00 | 0.00 | 42 | 1018.2 |
| 20260506144403 | 52 | 23 | 3.0 | 3.0 | 0.00 | 0.00 | 0.00 | 43 | 1018.2 |
| 20260506143904 | 52 | 288 | 3.0 | 3.0 | 0.00 | 0.00 | 0.00 | 43 | 1018.2 |
| 20260506143403 | 51 | 322 | 2.0 | 3.0 | 0.00 | 0.00 | 0.00 | 44 | 1018.2 |
| 20260506142903 | 51 | 324 | 3.0 | 3.0 | 0.00 | 0.00 | 0.00 | 44 | 1018.2 |
| 20260506142404 | 50 | 18 | 3.0 | 3.0 | 0.00 | 0.00 | 0.00 | 46 | 1018.2 |
| 20260506141903 | 50 | 46 | 5.0 | 5.0 | 0.00 | 0.00 | 0.00 | 47 | 1018.2 |
| 20260506141403 | 50 | 28 | 3.0 | 3.0 | 0.00 | 0.00 | 0.00 | 47 | 1018.2 |
| 20260506140903 | 49 | 22 | 4.0 | 5.0 | 0.00 | 0.00 | 0.00 | 47 | 1018.1 |
| 20260506140403 | 49 | 217 | 1.0 | 1.0 | 0.00 | 0.00 | 0.00 | 49 | 1018.1 |
| 20260506135903 | 48 | 243 | 2.0 | 3.0 | 0.00 | 0.00 | 0.00 | 50 | 1018.0 |
| 20260506135404 | 47 | 202 | 2.0 | 2.0 | 0.00 | 0.00 | 0.00 | 51 | 1017.9 |
| 20260506134903 | 47 | 206 | 1.0 | 1.0 | 0.00 | 0.00 | 0.00 | 51 | 1017.9 |
| 20260506134402 | 46 | 266 | 2.0 | 2.0 | 0.00 | 0.00 | 0.00 | 53 | 1018.0 |
| 20260506133403 | 44 | 209 | 1.0 | 1.0 | 0.00 | 0.00 | 0.00 | 56 | 1017.8 |
| 20260506132903 | 43 | 206 | 1.0 | 1.0 | 0.00 | 0.00 | 0.00 | 58 | 1017.6 |
| 20260506132403 | 42 | 146 | 1.0 | 1.0 | 0.00 | 0.00 | 0.00 | 58 | 1017.5 |
| 20260506131902 | 40 | 249 | 0.0 | 1.0 | 0.00 | 0.00 | 0.00 | 61 | 1017.4 |
| 20260506131403 | 39 | 292 | 2.0 | 2.0 | 0.00 | 0.00 | 0.00 | 63 | 1017.2 |
| 20260506130903 | 38 | 154 | 1.0 | 3.0 | 0.00 | 0.00 | 0.00 | 64 | 1017.1 |
| 20260506130403 | 38 | 196 | 2.0 | 3.0 | 0.00 | 0.00 | 0.00 | 64 | 1017.1 |
| 20260506125903 | 37 | 174 | 2.0 | 2.0 | 0.00 | 0.00 | 0.00 | 65 | 1017.1 |
| 20260506125403 | 37 | 165 | 1.0 | 3.0 | 0.00 | 0.00 | 0.00 | 66 | 1017.1 |
| 20260506124903 | 37 | 184 | 2.0 | 2.0 | 0.00 | 0.00 | 0.00 | 67 | 1017.0 |
| 20260506124403 | 36 | 158 | 1.0 | 2.0 | 0.00 | 0.00 | 0.00 | 67 | 1017.0 |
| 20260506123903 | 37 | 117 | 1.0 | 2.0 | 0.00 | 0.00 | 0.00 | 65 | 1016.9 |
| 20260506123403 | 37 | 227 | 1.0 | 2.0 | 0.00 | 0.00 | 0.00 | 65 | 1016.8 |
| 20260506122903 | 37 | 185 | 1.0 | 1.0 | 0.00 | 0.00 | 0.00 | 65 | 1016.7 |
| 20260506122403 | 37 | 109 | 2.0 | 3.0 | 0.00 | 0.00 | 0.00 | 63 | 1016.6 |
| 20260506121903 | 37 | 137 | 2.0 | 2.0 | 0.00 | 0.00 | 0.00 | 63 | 1016.5 |
| 20260506121403 | 38 | 122 | 1.0 | 2.0 | 0.00 | 0.00 | 0.00 | 63 | 1016.5 |
| 20260506120903 | 38 | 95 | 3.0 | 3.0 | 0.00 | 0.00 | 0.00 | 63 | 1016.4 |
| 20260506120403 | 39 | 135 | 2.0 | 2.0 | 0.00 | 0.00 | 0.00 | 62 | 1016.4 |
| 20260506115904 | 39 | 117 | 2.0 | 2.0 | 0.00 | 0.00 | 0.00 | 61 | 1016.5 |
| 20260506114402 | 39 | 130 | 2.0 | 3.0 | 0.00 | 0.00 | 0.00 | 60 | 1016.6 |
| 20260506113904 | 40 | 97 | 2.0 | 2.0 | 0.00 | 0.00 | 0.00 | 58 | 1016.6 |
| 20260506113403 | 41 | 134 | 2.0 | 2.0 | 0.00 | 0.00 | 0.00 | 58 | 1016.6 |
| 20260506112903 | 41 | 115 | 2.0 | 2.0 | 0.00 | 0.00 | 0.00 | 57 | 1016.5 |
| 20260506112403 | 42 | 150 | 1.0 | 2.0 | 0.00 | 0.00 | 0.00 | 55 | 1016.5 |
| 20260506111403 | 42 | 312 | 2.0 | 3.0 | 0.00 | 0.00 | 0.00 | 58 | 1016.5 |
| 20260506110903 | 42 | 329 | 2.0 | 3.0 | 0.00 | 0.00 | 0.00 | 58 | 1016.5 |
| 20260506110403 | 40 | 274 | 3.0 | 5.0 | 0.00 | 0.00 | 0.00 | 63 | 1016.4 |
| 20260506105903 | 39 | 277 | 3.0 | 5.0 | 0.00 | 0.00 | 0.00 | 62 | 1016.4 |
| 20260506104903 | 38 | 272 | 1.0 | 2.0 | 0.00 | 0.00 | 0.00 | 63 | 1016.4 |
| 20260506104402 | 38 | 49 | 2.0 | 3.0 | 0.00 | 0.00 | 0.00 | 64 | 1016.2 |
| 20260506103404 | 37 | 178 | 2.0 | 3.0 | 0.00 | 0.00 | 0.00 | 63 | 1016.1 |
| 20260506102903 | 37 | 84 | 2.0 | 3.0 | 0.00 | 0.00 | 0.00 | 61 | 1016.0 |
| 20260506102404 | 38 | 123 | 3.0 | 3.0 | 0.00 | 0.00 | 0.00 | 62 | 1016.0 |
| 20260506101903 | 38 | 68 | 1.0 | 1.0 | 0.00 | 0.00 | 0.00 | 61 | 1016.0 |
| 20260506101402 | 39 | 97 | 1.0 | 2.0 | 0.00 | 0.00 | 0.00 | 59 | 1016.0 |
| 20260506100903 | 39 | 125 | 2.0 | 3.0 | 0.00 | 0.00 | 0.00 | 59 | 1016.0 |
| 20260506100403 | 40 | 143 | 3.0 | 3.0 | 0.00 | 0.00 | 0.00 | 58 | 1015.9 |
| 20260506095904 | 40 | 48 | 2.0 | 3.0 | 0.00 | 0.00 | 0.00 | 58 | 1016.0 |
| 20260506095404 | 41 | 42 | 2.0 | 5.0 | 0.00 | 0.00 | 0.00 | 56 | 1016.0 |
| 20260506094903 | 41 | 106 | 3.0 | 3.0 | 0.00 | 0.00 | 0.00 | 55 | 1016.1 |
| 20260506094404 | 42 | 125 | 3.0 | 3.0 | 0.00 | 0.00 | 0.00 | 53 | 1016.1 |
| 20260506093903 | 43 | 153 | 3.0 | 3.0 | 0.00 | 0.00 | 0.00 | 52 | 1016.1 |
| 20260506092903 | 45 | 154 | 2.0 | 3.0 | 0.00 | 0.00 | 0.00 | 49 | 1016.2 |
| 20260506092403 | 48 | 147 | 4.0 | 6.0 | 0.00 | 0.00 | 0.00 | 44 | 1016.1 |
| 20260506091904 | 48 | 262 | 5.0 | 6.0 | 0.00 | 0.00 | 0.00 | 48 | 1016.1 |
| 20260506091403 | 48 | 312 | 3.0 | 3.0 | 0.00 | 0.00 | 0.00 | 48 | 1016.0 |
| 20260506090403 | 48 | 266 | 5.0 | 6.0 | 0.00 | 0.00 | 0.00 | 48 | 1015.9 |
| 20260506085904 | 48 | 234 | 2.0 | 5.0 | 0.00 | 0.00 | 0.00 | 48 | 1015.9 |
| 20260506085403 | 48 | 227 | 3.0 | 5.0 | 0.00 | 0.00 | 0.00 | 48 | 1015.9 |
| 20260506084403 | 48 | 255 | 4.0 | 7.0 | 0.00 | 0.00 | 0.00 | 47 | 1015.9 |
| 20260506083903 | 48 | 247 | 5.0 | 6.0 | 0.00 | 0.00 | 0.00 | 47 | 1015.9 |
| 20260506083403 | 48 | 233 | 4.0 | 5.0 | 0.00 | 0.00 | 0.00 | 47 | 1015.9 |
| 20260506081903 | 49 | 240 | 3.0 | 3.0 | 0.00 | 0.00 | 0.00 | 46 | 1015.9 |
| 20260506081404 | 49 | 250 | 2.0 | 7.0 | 0.00 | 0.00 | 0.00 | 45 | 1015.9 |
| 20260506080903 | 49 | 223 | 6.0 | 8.0 | 0.00 | 0.00 | 0.00 | 45 | 1015.8 |
| 20260506080402 | 49 | 225 | 6.0 | 8.0 | 0.00 | 0.00 | 0.00 | 45 | 1015.9 |
| 20260506072403 | 49 | 248 | 2.0 | 6.0 | 0.00 | 0.00 | 0.00 | 44 | 1016.0 |
| 20260506071903 | 49 | 230 | 5.0 | 6.0 | 0.00 | 0.00 | 0.00 | 44 | 1015.9 |
| 20260506071403 | 49 | 210 | 3.0 | 5.0 | 0.00 | 0.00 | 0.00 | 44 | 1015.9 |
| 20260506070903 | 49 | 260 | 3.0 | 5.0 | 0.00 | 0.00 | 0.00 | 43 | 1015.9 |
| 20260506070404 | 49 | 235 | 4.0 | 5.0 | 0.00 | 0.00 | 0.00 | 43 | 1015.9 |
| 20260506062403 | 50 | 237 | 6.0 | 7.0 | 0.00 | 0.00 | 0.00 | 41 | 1015.6 |
| 20260506061403 | 50 | 240 | 3.0 | 5.0 | 0.00 | 0.00 | 0.00 | 42 | 1015.6 |
| 20260506060904 | 50 | 250 | 5.0 | 9.0 | 0.00 | 0.00 | 0.00 | 41 | 1015.6 |
| 20260506060403 | 49 | 225 | 3.0 | 3.0 | 0.00 | 0.00 | 0.00 | 42 | 1015.6 |
| 20260506051404 | 50 | 128 | 2.0 | 2.0 | 0.00 | 0.00 | 0.00 | 39 | 1015.4 |
| 20260506050903 | 50 | 231 | 3.0 | 3.0 | 0.00 | 0.00 | 0.00 | 39 | 1015.3 |
| 20260506050403 | 51 | 229 | 2.0 | 3.0 | 0.00 | 0.00 | 0.00 | 39 | 1015.3 |
| 20260506044903 | 51 | 266 | 3.0 | 5.0 | 0.00 | 0.00 | 0.00 | 38 | 1015.2 |
| 20260506044404 | 51 | 289 | 5.0 | 5.0 | 0.00 | 0.00 | 0.00 | 38 | 1015.2 |
| 20260506043903 | 52 | 289 | 3.0 | 6.0 | 0.00 | 0.00 | 0.00 | 37 | 1015.2 |
| 20260506043404 | 52 | 271 | 6.0 | 8.0 | 0.00 | 0.00 | 0.00 | 36 | 1015.2 |
| 20260506042403 | 52 | 267 | 3.0 | 6.0 | 0.00 | 0.00 | 0.00 | 36 | 1015.0 |
| 20260506041904 | 52 | 250 | 6.0 | 8.0 | 0.00 | 0.00 | 0.00 | 36 | 1015.0 |
| 20260506041403 | 52 | 258 | 4.0 | 6.0 | 0.00 | 0.00 | 0.00 | 36 | 1015.0 |
| 20260506040904 | 52 | 255 | 8.0 | 8.0 | 0.00 | 0.00 | 0.00 | 35 | 1015.0 |
| 20260506040403 | 52 | 264 | 7.0 | 8.0 | 0.00 | 0.00 | 0.00 | 36 | 1014.9 |
| 20260506035904 | 52 | 243 | 7.0 | 10.0 | 0.00 | 0.00 | 0.00 | 36 | 1014.8 |
| 20260506035403 | 52 | 245 | 6.0 | 12.0 | 0.00 | 0.00 | 0.00 | 35 | 1014.8 |
| 20260506034903 | 52 | 247 | 5.0 | 7.0 | 0.00 | 0.00 | 0.00 | 36 | 1014.7 |
| 20260506034404 | 52 | 221 | 3.0 | 8.0 | 0.00 | 0.00 | 0.00 | 36 | 1014.7 |
| 20260506033403 | 52 | 245 | 7.0 | 7.0 | 0.00 | 0.00 | 0.00 | 36 | 1014.4 |
| 20260506032404 | 52 | 265 | 9.0 | 10.0 | 0.00 | 0.00 | 0.00 | 35 | 1014.2 |
| 20260506031404 | 52 | 252 | 7.0 | 8.0 | 0.00 | 0.00 | 0.00 | 34 | 1014.0 |
| 20260506025903 | 52 | 230 | 7.0 | 10.0 | 0.00 | 0.00 | 0.00 | 35 | 1013.8 |